GFSMW_sfc_temp_000.txt.gz
Temp
76 74 71 71 70 70 70 70 69 69 70 69 69 70 69 70 71 73 70 69 71 69 69 70 68 67 66 64 63 63 62 63 63 61 60 62 62 65 63 65 70 64 60
72 70 70 69 68 69 70 70 70 70 70 72 72 72 70 71 73 72 68 68 68 68 69 67 67 66 66 64 63 62 61 62 63 57 57 55 62 63 62 64 64 67 65
70 69 68 68 68 67 69 70 71 70 70 70 70 69 68 68 68 69 70 69 67 67 66 66 66 65 65 64 63 63 61 59 62 61 57 52 51 51 63 64 61 63 62
69 68 69 68 67 68 69 69 70 70 70 69 68 66 67 66 69 67 69 68 67 66 66 65 65 64 64 63 63 65 62 61 58 62 63 59 57 51 51 59 57 58 59
68 68 69 69 70 68 68 68 69 68 69 67 66 65 64 66 67 66 63 64 65 65 65 64 63 63 63 62 61 60 60 61 59 59 60 59 59 57 53 50 56 56 56
69 69 68 68 68 68 66 66 66 67 67 65 64 62 62 63 62 63 61 63 63 64 63 63 61 61 60 60 60 60 59 59 59 59 59 58 56 56 55 53 54 54 56
69 69 69 67 67 67 65 65 65 64 66 63 62 61 61 60 59 59 60 58 58 59 60 59 58 59 58 58 58 58 57 58 58 58 58 59 58 58 57 55 53 52 57
70 69 68 68 67 66 66 65 65 63 65 61 60 59 59 59 60 56 58 57 55 54 56 55 55 56 56 56 56 56 57 57 57 56 58 58 59 59 58 55 53 50 52
68 69 69 66 66 66 65 64 63 63 61 59 57 56 56 55 55 55 55 56 55 56 55 54 53 53 53 53 53 53 54 55 55 55 56 56 59 58 58 57 56 51 46
67 68 69 68 67 67 66 63 61 61 59 57 55 55 54 54 55 54 53 53 53 53 53 52 52 52 51 52 51 51 53 52 54 55 54 54 56 58 57 56 55 54 51
67 67 68 69 68 65 61 58 58 59 56 55 53 52 54 54 53 53 53 52 52 52 50 50 50 49 49 50 49 49 49 49 50 52 53 53 54 54 56 55 54 53 53
68 68 67 66 64 60 59 56 57 56 55 54 52 52 53 52 51 52 51 51 50 50 49 49 48 48 48 48 47 46 47 47 47 48 49 50 54 52 53 54 52 52 54
66 66 66 63 61 58 57 55 55 55 54 53 52 51 50 51 51 51 51 50 49 48 48 48 46 46 46 46 46 46 45 45 46 47 47 48 49 49 51 52 52 52 53
63 62 62 63 59 57 56 54 54 54 53 53 52 50 50 49 50 50 49 48 47 46 46 46 45 45 45 45 44 44 43 43 42 42 42 43 44 44 47 49 49 51 50
59 59 59 60 58 55 55 54 54 52 52 51 51 51 49 49 49 48 47 47 46 46 46 44 44 44 44 44 43 42 40 38 37 38 39 40 40 40 41 43 45 47 47
57 57 57 56 55 54 53 53 52 52 53 51 50 50 48 48 47 47 45 45 45 45 45 43 43 42 43 39 36 35 34 34 34 34 37 39 39 39 38 38 38 38 39
51 51 54 55 54 53 54 53 53 53 50 50 49 48 47 45 45 45 44 44 43 43 42 42 41 40 40 37 35 34 34 33 34 35 36 38 41 39 40 38 36 36 37
46 50 53 53 53 54 54 52 52 50 49 48 47 47 45 44 44 43 43 43 42 41 41 40 39 38 38 34 34 33 33 32 34 34 36 36 37 38 39 39 38 39 41
47 49 48 51 52 50 49 50 50 50 47 46 45 45 44 43 42 41 40 41 40 39 39 38 37 35 34 33 32 32 32 31 32 35 35 36 36 36 37 36 35 37 38
51 46 45 44 43 47 50 49 49 48 46 45 43 44 43 42 41 41 40 40 40 38 36 34 34 33 32 32 32 31 31 30 32 34 35 34 35 34 34 35 34 33 36
50 44 42 43 49 50 49 46 48 45 45 43 43 43 42 41 40 40 40 39 37 33 31 30 31 32 32 32 33 33 31 32 32 34 36 37 35 34 33 34 35 35 39
40 40 44 47 50 50 48 48 47 45 43 42 42 41 41 40 39 39 38 37 34 32 30 30 31 35 34 34 34 34 33 32 31 32 35 35 33 31 32 32 32 33 35
41 46 47 47 49 47 47 46 43 43 41 41 40 40 40 39 39 37 34 34 35 31 29 30 31 33 36 36 34 34 33 32 30 33 32 30 31 31 31 32 32 32 35
42 47 47 47 46 46 44 45 41 40 40 39 38 38 37 36 37 36 36 34 31 29 29 29 31 31 34 33 34 34 34 33 33 32 33 31 30 32 33 34 32 33 34
45 46 46 45 45 44 43 42 41 39 38 36 35 36 35 34 34 35 34 32 32 30 27 29 29 29 29 31 31 31 31 31 31 29 31 32 31 32 34 34 33 34 34
45 46 45 45 44 43 42 41 40 38 36 33 34 33 32 32 33 33 32 34 32 31 30 30 29 29 29 31 31 31 30 30 30 31 29 29 29 29 30 30 32 33 33

GFSMW_sfc_temp_003.txt.gz
Temp
84 84 80 78 76 76 74 74 74 73 74 73 72 72 70 72 73 74 72 71 73 71 70 71 69 69 67 66 65 64 62 63 65 60 61 64 65 64 68 68 65 68 69
79 79 79 76 75 74 74 74 74 74 73 75 74 74 73 73 74 74 71 71 70 70 70 69 68 68 66 65 65 63 61 62 65 59 58 55 61 66 63 65 65 68 70
75 76 75 75 75 73 73 74 75 75 73 73 74 72 71 70 70 71 71 70 69 70 69 68 67 66 66 64 64 64 61 59 62 63 59 53 52 57 63 65 64 64 64
76 76 75 76 74 73 74 74 75 75 75 73 71 69 68 67 70 71 72 72 71 69 69 68 67 66 65 63 63 65 63 61 58 61 63 62 60 52 50 61 62 63 62
76 75 76 77 77 76 73 73 73 73 74 73 68 67 64 67 69 69 67 67 67 68 67 67 65 64 64 64 63 62 61 62 60 59 59 59 60 60 56 52 56 62 64
75 76 78 77 76 75 73 72 72 72 73 71 69 64 62 64 64 64 62 62 64 64 65 65 63 62 61 61 61 61 60 59 59 60 59 58 56 55 56 55 56 56 62
73 74 74 75 76 74 73 72 71 70 71 70 68 66 64 63 62 61 60 60 58 60 60 60 58 58 59 59 59 58 57 57 56 57 58 60 59 60 59 57 55 55 59
72 73 73 73 74 73 73 73 71 69 70 69 67 66 64 62 62 61 58 57 58 58 59 58 57 57 57 56 56 56 56 56 56 56 56 58 60 61 61 59 56 52 54
72 72 73 73 73 72 71 72 71 71 70 68 67 64 62 59 58 58 58 57 58 58 58 56 55 55 55 55 54 55 54 55 55 55 55 56 57 58 59 59 59 54 48
71 71 72 71 71 72 72 71 70 69 69 68 64 60 58 58 57 57 55 55 55 56 55 54 54 54 54 53 53 53 53 53 53 54 54 54 56 57 58 58 56 57 53
69 70 71 72 71 71 70 68 67 66 65 64 59 57 56 56 55 55 55 55 55 54 53 53 53 52 52 52 51 51 51 51 51 52 52 52 54 53 55 55 54 52 53
70 71 70 69 69 69 68 67 65 62 63 60 57 55 55 55 54 54 54 54 53 53 52 52 52 51 51 51 50 49 50 49 49 50 50 50 54 52 53 53 51 52 53
69 69 67 67 67 67 66 64 63 60 60 58 56 54 53 53 53 53 53 53 52 52 52 51 49 49 49 49 49 48 48 48 48 48 48 48 49 48 50 51 51 51 53
67 67 65 64 63 65 65 62 60 59 58 57 56 54 53 53 53 52 51 51 52 50 50 49 49 48 48 48 48 47 46 46 46 45 44 44 44 44 45 46 47 50 49
64 64 60 59 60 62 62 61 59 58 57 55 54 51 53 53 52 51 51 51 50 49 49 48 48 47 48 48 46 45 43 42 40 40 40 40 40 40 40 41 41 42 44
62 61 56 55 58 59 60 59 57 56 56 54 52 53 53 51 50 50 49 49 48 48 47 46 46 45 47 42 39 39 39 37 35 34 36 38 38 38 37 37 37 38 38
59 56 51 54 58 57 58 56 56 54 50 52 51 51 50 49 48 49 49 47 46 46 45 45 44 43 43 40 38 36 36 34 33 33 35 36 39 38 39 38 37 36 36
53 49 53 56 56 54 56 55 51 51 50 50 51 51 50 48 48 47 46 46 46 44 43 43 42 41 41 37 36 35 33 32 33 33 35 35 35 37 37 37 37 39 40
47 55 54 56 48 49 49 47 46 49 51 50 50 50 48 47 46 45 44 44 43 42 42 41 38 36 35 35 34 33 32 32 33 35 35 36 35 35 36 33 32 34 36
55 54 53 47 44 44 46 49 50 51 50 49 49 49 48 47 45 44 43 43 43 41 39 36 36 34 33 34 34 34 32 31 32 34 35 34 34 33 33 32 32 31 34
54 52 44 42 48 49 51 50 50 50 51 48 48 47 48 46 45 43 43 42 40 37 33 32 33 34 34 34 35 35 33 33 32 33 34 35 34 33 33 34 33 33 36
53 44 42 47 50 51 51 51 51 51 49 47 46 46 46 45 44 42 41 40 38 35 32 31 32 35 34 36 36 34 33 33 31 31 33 34 33 32 32 31 31 32 32
43 45 46 46 49 51 51 49 48 48 46 45 45 44 44 43 42 40 38 37 38 33 31 30 31 32 34 35 35 33 33 32 31 33 32 33 32 32 32 32 31 31 32
40 45 46 47 48 50 48 48 46 45 46 43 42 42 41 39 40 39 39 37 33 31 31 29 29 30 32 32 33 32 33 32 32 33 33 33 31 31 32 33 34 32 33
42 45 46 47 48 49 47 47 45 43 42 41 39 40 39 37 37 37 37 35 34 32 29 29 29 28 27 30 31 31 30 31 31 30 32 33 33 32 34 35 33 33 34
43 45 48 48 48 47 46 46 45 43 40 37 38 36 35 36 36 36 35 35 34 33 32 31 30 30 29 30 31 31 31 32 31 32 30 30 30 29 30 32 33 34 34

GFSMW_sfc_temp_006.txt.gz
Temp
81 81 78 75 73 72 71 70 70 68 67 65 63 62 61 63 63 65 66 64 64 64 61 60 60 60 58 57 57 55 54 52 54 52 51 52 56 55 59 59 61 62 63
77 78 77 73 71 70 70 69 70 69 67 66 65 64 64 64 65 64 63 64 63 63 63 60 59 59 57 56 55 55 52 52 53 49 49 46 51 54 55 57 58 58 59
72 74 74 72 70 68 68 70 69 69 67 66 66 64 63 61 61 61 61 62 62 62 62 61 59 58 57 55 54 53 53 49 51 52 48 45 43 48 54 53 55 54 56
74 74 73 71 70 68 68 68 69 69 69 66 64 61 61 60 62 60 62 64 62 61 62 61 60 57 56 55 54 57 52 51 48 50 55 50 50 46 45 50 52 53 54
71 71 71 72 70 69 67 66 67 67 68 65 63 61 59 60 59 59 60 60 60 62 62 61 59 56 55 54 52 52 52 51 49 49 48 49 50 50 47 45 49 51 52
69 71 71 72 70 69 67 66 66 67 67 65 63 59 57 57 57 57 55 57 57 56 57 57 54 53 53 52 50 50 50 49 49 49 50 49 47 47 47 46 48 48 51
68 68 69 69 68 67 67 66 66 66 66 63 62 60 58 57 56 56 55 55 54 54 53 54 52 52 51 51 51 49 48 48 48 48 48 50 50 51 50 48 47 46 51
69 69 70 69 68 68 67 67 67 66 66 64 63 60 59 57 56 56 55 52 52 52 54 53 52 52 51 50 49 48 48 47 47 47 48 49 50 51 51 50 47 44 46
68 70 70 68 68 67 66 64 65 67 66 64 61 59 58 57 55 56 53 52 52 55 52 51 50 50 49 48 47 46 46 47 47 46 46 47 48 48 49 50 49 45 40
68 69 68 66 67 67 67 65 64 64 64 63 61 58 56 55 54 53 52 52 51 51 50 50 49 48 48 47 46 44 45 45 45 47 46 46 47 48 48 49 49 49 45
68 67 67 68 66 66 65 64 63 62 60 59 58 53 54 53 52 52 51 51 50 50 50 49 48 48 47 47 45 44 45 44 44 45 45 45 46 45 46 46 47 46 46
68 67 66 66 65 63 62 63 61 59 58 58 54 52 52 52 50 50 50 50 49 49 48 48 48 48 47 46 45 44 45 44 43 43 43 43 48 44 45 45 44 45 46
65 65 66 63 62 60 59 60 60 58 57 56 53 51 50 50 49 49 49 49 49 48 48 48 46 46 45 45 44 44 43 43 43 42 42 42 42 41 42 43 43 44 47
64 64 62 61 60 59 58 59 59 57 56 55 53 50 49 50 49 49 48 48 48 47 46 46 45 44 44 45 45 44 42 41 42 41 40 40 39 38 38 39 39 41 39
61 58 57 59 58 57 57 58 58 56 55 53 52 51 49 49 49 48 47 47 46 46 45 44 43 43 44 45 42 41 38 37 37 37 38 37 37 39 38 37 36 36 36
55 55 57 55 55 56 56 55 56 55 54 51 48 48 48 50 48 46 45 45 44 43 43 41 41 40 44 41 40 37 35 35 34 33 34 35 36 36 37 37 37 36 33
53 54 52 52 55 55 54 52 53 50 48 46 46 46 47 47 46 46 45 42 40 40 39 39 39 38 39 40 38 37 33 32 32 31 32 33 36 36 36 36 36 36 36
51 52 52 54 55 52 49 48 48 49 46 45 45 48 48 46 45 44 42 39 39 38 38 37 37 36 37 37 36 35 32 31 31 31 31 31 31 33 34 34 33 33 35
52 52 55 54 50 48 46 44 44 44 44 47 48 48 46 44 43 41 38 38 37 37 36 36 34 33 33 35 35 34 32 30 30 32 32 33 32 34 36 32 30 30 32
54 54 53 50 48 45 47 47 47 47 48 48 47 47 46 44 42 39 37 37 36 36 34 34 33 34 31 34 35 34 32 30 31 33 33 34 33 33 33 31 30 29 30
54 54 50 46 46 49 49 48 49 48 49 47 46 46 45 43 41 39 38 37 35 33 31 28 30 31 32 32 36 36 32 30 29 30 30 32 34 34 33 33 31 30 33
52 49 46 46 48 49 47 48 48 48 47 46 44 43 42 42 42 37 36 35 33 31 26 28 28 30 30 34 34 33 32 31 29 29 30 31 33 33 33 32 32 32 31
46 46 46 46 47 48 50 47 45 47 44 43 41 40 40 39 39 35 33 32 32 30 28 28 27 27 30 31 33 33 32 32 29 30 30 32 32 33 31 32 32 31 29
43 44 44 44 46 49 48 46 45 44 43 39 38 37 36 35 35 35 34 32 29 28 28 26 26 27 28 28 29 29 30 31 31 30 30 30 29 30 30 30 31 31 30
43 43 45 45 46 48 47 46 45 43 39 36 35 35 34 33 33 33 32 30 29 29 27 27 27 26 25 27 30 31 30 30 30 30 30 29 28 28 28 30 31 29 28
43 45 45 47 47 48 46 46 43 38 34 33 33 32 31 31 32 31 31 34 33 33 33 33 29 28 29 30 31 32 32 32 32 29 27 25 25 26 27 27 29 28 27

GFSMW_sfc_temp_012.txt.gz
Temp
60 59 60 59 59 59 60 60 60 59 56 55 54 52 53 54 54 54 57 56 57 57 54 53 53 52 51 50 50 49 49 47 47 46 45 46 47 48 51 49 48 50 52
59 61 60 58 60 60 60 59 60 59 58 56 55 55 54 54 55 55 54 55 55 55 55 53 52 51 50 50 50 49 47 47 47 45 42 40 45 46 48 50 49 48 48
59 60 61 58 56 58 59 61 60 59 58 57 55 54 52 52 52 53 52 54 55 56 54 54 52 50 50 49 49 49 47 45 45 46 44 39 37 44 47 47 49 48 47
60 61 60 56 56 58 57 58 60 59 59 57 54 53 56 56 57 56 53 54 55 55 54 53 52 50 49 48 47 49 45 44 43 44 48 45 42 38 40 45 48 50 50
58 58 57 60 61 59 59 59 60 59 60 57 54 52 52 55 57 51 52 51 52 53 54 52 51 49 48 47 47 46 44 45 43 43 41 42 41 41 39 38 44 49 49
56 58 59 57 57 57 57 57 57 58 58 57 55 52 51 54 52 51 49 49 48 47 49 51 49 49 48 48 46 46 45 44 45 44 42 41 39 40 38 38 40 41 46
56 56 56 57 55 54 55 56 56 58 59 55 54 54 52 52 51 52 51 50 49 48 46 47 46 46 45 45 45 45 45 45 44 44 43 44 43 43 42 40 39 39 44
57 55 56 55 55 56 54 56 57 57 58 55 54 53 51 50 50 50 50 47 48 46 47 45 44 45 45 45 45 43 43 43 43 43 42 42 43 44 43 41 38 36 38
54 54 55 54 54 53 53 53 53 53 56 53 52 50 50 49 47 45 45 46 46 47 45 44 44 44 44 44 43 42 43 44 43 42 41 41 42 41 42 42 41 38 32
54 54 54 54 52 51 52 51 52 54 54 52 49 50 47 46 45 44 43 43 44 45 44 44 44 44 43 44 44 43 42 41 41 41 39 40 41 41 42 42 41 40 37
52 52 54 55 56 57 56 53 51 50 50 49 49 46 45 44 43 43 43 43 44 45 44 43 44 44 43 44 43 41 41 40 39 39 39 39 39 39 39 39 40 39 38
50 51 51 52 52 51 50 50 51 49 49 48 46 44 43 43 42 42 43 44 44 44 45 44 44 44 43 43 41 39 40 37 37 37 38 38 42 38 37 36 37 38 38
49 49 50 52 50 51 50 50 49 47 47 47 44 43 42 42 41 41 43 43 44 45 44 44 42 42 41 40 39 38 38 37 38 37 36 36 36 34 33 33 32 33 38
50 49 48 49 48 49 48 49 46 45 45 45 42 41 41 40 41 41 41 42 42 41 41 41 41 40 40 39 39 38 36 33 34 33 32 33 33 33 33 33 33 34 33
48 49 47 48 48 49 48 46 45 44 45 45 43 40 41 41 42 41 40 41 43 43 40 39 37 36 37 39 35 33 31 30 30 31 32 32 34 37 36 35 33 33 31
49 51 50 49 49 48 47 45 47 46 45 42 43 43 42 43 42 42 41 42 41 40 38 36 35 34 38 37 37 35 31 32 31 30 31 31 34 33 35 35 35 34 31
48 48 48 47 47 44 44 42 42 42 44 43 43 42 42 41 40 41 41 39 37 35 34 33 32 31 31 36 37 36 32 30 30 29 29 30 32 33 32 33 34 34 34
49 49 47 46 44 42 41 41 42 41 41 40 41 42 40 40 39 38 37 34 34 33 32 31 31 30 32 35 36 35 31 29 29 30 30 30 31 32 32 31 30 31 31
48 48 45 43 40 39 40 42 40 40 42 41 39 39 39 39 36 34 33 33 31 30 30 31 29 28 28 33 34 33 28 28 29 31 31 31 31 33 35 32 30 30 30
48 46 44 41 39 40 41 40 40 39 38 39 40 42 40 37 34 32 31 31 29 29 29 29 28 29 27 31 33 32 29 26 27 28 30 32 31 32 32 30 29 28 30
43 43 41 39 40 42 45 41 38 39 41 41 40 38 37 36 33 31 30 28 27 27 21 20 23 26 27 26 32 33 29 27 27 28 29 30 32 33 32 32 29 29 32
40 40 40 37 41 45 43 40 38 41 41 39 37 36 35 34 34 30 28 28 25 21 15 15 19 22 23 28 31 32 32 31 28 28 29 30 32 33 32 32 32 32 31
37 38 36 41 43 44 43 39 38 41 37 35 34 32 32 32 31 28 27 24 23 20 18 19 20 22 25 27 31 31 31 31 29 30 31 32 32 31 29 31 31 30 30
37 39 41 40 39 41 40 39 40 38 35 32 31 31 29 29 28 27 27 22 20 19 24 22 22 23 24 25 26 28 29 31 30 28 28 25 27 24 26 27 28 29 29
39 39 36 38 40 40 37 35 35 34 32 31 30 29 28 26 26 27 24 24 24 21 20 20 25 22 21 25 29 29 29 29 29 28 23 23 23 24 25 26 27 29 28
37 38 39 40 41 41 37 35 34 32 30 30 28 24 23 22 23 21 23 29 29 31 31 31 27 25 28 29 29 29 29 30 29 26 22 18 21 22 23 23 24 25 27